Weather History for Florennes, Belgium

Change the Weather History Date:

Saturday, November 30, 2013

  Actual Average Record
Temperature  
Mean Temperature 40 °F -  
Max Temperature 43 °F 38 °F 53 °F (2001)
Min Temperature 36 °F 33 °F 23 °F (2010)
Degree Days  
Heating Degree Days 26    
Moisture  
Dew Point 39 °F    
Average Humidity 94    
Maximum Humidity 100    
Minimum Humidity 81    
Precipitation  
Precipitation 0.00 in - - ()
Sea Level Pressure  
Sea Level Pressure 30.17 in    
Wind  
Wind Speed 7 mph ()    
Max Wind Speed 12 mph    
Max Gust Speed 39 mph    
Visibility 5.8 miles    
Events Rain    
Averages and records for this station are not official NWS values.
T = Trace of Precipitation, MM = Missing Value Source: Averaged Metar Reports

Daily Weather History Graph

Daily Weather History Graph

Search for Another Location

Airport:

Trip Planner

Search our weather history database for the weather conditions in past years. The results will help you decide how hot, cold, wet, or windy it might be!

Date:

Astronomy

Nov. 30, 2013 Rise Set
Actual Time 8:17 AM CET 4:42 PM CET
Civil Twilight 7:40 AM CET 5:19 PM CET
Nautical Twilight 6:59 AM CET 6:00 PM CET
Astronomical Twilight 6:20 AM CET 6:39 PM CET
Moon 4:56 AM CET (11/30) 3:08 PM CET (11/30)
Length of Visible Light 9h 39m
Length of Day
8h 24m
Waning Crescent, 9% of the Moon is Illuminated
Nov 30
Waning Crescent
Dec 3
New
Dec 9
First Quarter
Dec 17
Full
Dec 25
Last Quarter

Hourly Weather History & Observations

Time (CET) Temp. Windchill Dew Point Humidity Pressure Visibility Wind Dir Wind Speed Gust Speed Precip Events Conditions
12:25 AM 37.4 °F 30.3 °F 35.6 °F 93% 30.04 in 6.2 mi West 10.4 mph - N/A   Scattered Clouds
12:55 AM 37.4 °F 30.8 °F 35.6 °F 93% 30.04 in 6.2 mi West 9.2 mph - N/A   Scattered Clouds
1:00 AM 38 °F - 36 °F 89% 30.07 in 16 mi West 8.9 mph - -   Partly Cloudy
1:25 AM 37.4 °F 30.8 °F 35.6 °F 93% 30.01 in 6.2 mi West 9.2 mph - N/A   Scattered Clouds
1:55 AM 37.4 °F 30.8 °F 35.6 °F 93% 30.01 in 6.2 mi West 9.2 mph - N/A   Mostly Cloudy
2:25 AM 37.4 °F 30.3 °F 35.6 °F 93% 30.01 in 6.2 mi West 10.4 mph - N/A   Scattered Clouds
2:55 AM 37.4 °F 30.3 °F 35.6 °F 93% 30.01 in 6.2 mi West 10.4 mph - N/A   Mostly Cloudy
3:25 AM 37.4 °F 31.4 °F 35.6 °F 93% 30.01 in 6.2 mi WNW 8.1 mph - N/A   Mostly Cloudy
3:55 AM 37.4 °F 30.8 °F 35.6 °F 93% 30.01 in 6.2 mi West 9.2 mph - N/A   Mostly Cloudy
4:00 AM 37 °F - 36 °F 94% 30.07 in 9 mi West 8.9 mph - -   Scattered Clouds
4:25 AM 37.4 °F 30.3 °F 35.6 °F 93% 30.01 in 6.2 mi West 10.4 mph - N/A   Mostly Cloudy
4:55 AM 37.4 °F 29.8 °F 35.6 °F 93% 30.01 in 6.2 mi WNW 11.5 mph - N/A   Mostly Cloudy
5:25 AM 35.6 °F 28.6 °F 35.6 °F 100% 30.01 in 6.2 mi West 9.2 mph - N/A   Mostly Cloudy
5:55 AM 35.6 °F 29.9 °F 35.6 °F 100% 30.04 in 6.2 mi West 6.9 mph - N/A   Mostly Cloudy
6:25 AM 37.4 °F 30.8 °F 37.4 °F 100% 30.04 in 6.2 mi West 9.2 mph - N/A   Mostly Cloudy
6:52 AM 37.4 °F 30.8 °F 37.4 °F 100% 30.04 in 6.2 mi WNW 9.2 mph - N/A   Mostly Cloudy
6:55 AM 37.4 °F 30.8 °F 37.4 °F 100% 30.04 in 6.2 mi WNW 9.2 mph - N/A   Mostly Cloudy
7:00 AM 37 °F - 37 °F 99% 30.09 in 8 mi WNW 8.9 mph - - Rain Light Rain Showers
7:25 AM 37.4 °F 31.4 °F 37.4 °F 100% 30.04 in 6.2 mi WNW 8.1 mph - N/A   Mostly Cloudy
7:55 AM 37.4 °F 31.4 °F 37.4 °F 100% 30.06 in 4.3 mi WNW 8.1 mph - N/A   Mostly Cloudy
8:23 AM 39.2 °F 34.2 °F 37.4 °F 93% 30.06 in 4.3 mi NW 6.9 mph 39.1 mph N/A   Mostly Cloudy
8:25 AM 39.2 °F 34.2 °F 37.4 °F 93% 30.06 in 4.3 mi NW 6.9 mph 39.1 mph N/A   Mostly Cloudy
8:55 AM 39.2 °F 34.2 °F 39.2 °F 100% 30.09 in 3.7 mi WNW 6.9 mph 21.9 mph N/A   Mostly Cloudy
9:25 AM 39.2 °F 34.2 °F 39.2 °F 100% 30.09 in 3.7 mi NNW 6.9 mph - N/A   Mostly Cloudy
9:55 AM 39.2 °F 34.2 °F 39.2 °F 100% 30.12 in 4.3 mi NNW 6.9 mph - N/A   Mostly Cloudy
10:00 AM 40 °F - 39 °F 95% 30.15 in 4 mi NNW 6.7 mph - -   Overcast
10:06 AM 39.2 °F 34.2 °F 39.2 °F 100% 30.12 in 5.6 mi NNW 6.9 mph - N/A   Mostly Cloudy
10:25 AM 41.0 °F 35.2 °F 39.2 °F 93% 30.12 in 5.6 mi North 9.2 mph - N/A   Mostly Cloudy
10:55 AM 41.0 °F 35.8 °F 39.2 °F 93% 30.15 in 6.2 mi North 8.1 mph - N/A   Mostly Cloudy
11:25 AM 41.0 °F 35.8 °F 39.2 °F 93% 30.15 in 6.2 mi NNW 8.1 mph - N/A   Scattered Clouds
11:48 AM 42.8 °F 38.0 °F 39.2 °F 87% 30.15 in 6.2 mi North 8.1 mph - N/A   Mostly Cloudy
11:55 AM 42.8 °F 39.3 °F 39.2 °F 87% 30.15 in 6.2 mi North 5.8 mph - N/A Rain Light Rain Showers
12:20 PM 42.8 °F 39.3 °F 39.2 °F 87% 30.15 in 6.2 mi North 5.8 mph - N/A Rain Light Rain Showers
12:25 PM 42.8 °F 39.3 °F 39.2 °F 87% 30.15 in 6.2 mi North 5.8 mph - N/A   Mostly Cloudy
12:55 PM 42.8 °F 38.6 °F 39.2 °F 87% 30.15 in 6.2 mi North 6.9 mph - N/A   Mostly Cloudy
1:00 PM 42 °F - 40 °F 88% 30.20 in 9 mi North 6.7 mph - - Rain Light Rain Showers
1:25 PM 42.8 °F 38.0 °F 39.2 °F 87% 30.18 in 6.2 mi NNW 8.1 mph - N/A   Mostly Cloudy
1:55 PM 42.8 °F 38.6 °F 39.2 °F 87% 30.18 in 6.2 mi NNW 6.9 mph - N/A   Mostly Cloudy
2:24 PM 42.8 °F 40.1 °F 39.2 °F 87% 30.18 in 6.2 mi NNW 4.6 mph - N/A   Mostly Cloudy
2:25 PM 42.8 °F 40.1 °F 39.2 °F 87% 30.18 in 6.2 mi NNW 4.6 mph - N/A   Mostly Cloudy
2:55 PM 42.8 °F 40.1 °F 39.2 °F 87% 30.21 in 6.2 mi NNW 4.6 mph - N/A   Mostly Cloudy
3:25 PM 42.8 °F 38.6 °F 39.2 °F 87% 30.21 in 6.2 mi North 6.9 mph - N/A   Mostly Cloudy
3:55 PM 42.8 °F 38.0 °F 39.2 °F 87% 30.24 in 6.2 mi North 8.1 mph - N/A   Mostly Cloudy
4:00 PM 43 °F - 39 °F 81% 30.27 in 16 mi North 6.7 mph - -   Mostly Cloudy
4:25 PM 42.8 °F 40.1 °F 39.2 °F 87% 30.24 in 6.2 mi North 4.6 mph - N/A   Mostly Cloudy
4:55 PM 41.0 °F 38.0 °F 39.2 °F 93% 30.24 in 6.2 mi North 4.6 mph - N/A   Mostly Cloudy
5:25 PM 41.0 °F 39.0 °F 39.2 °F 93% 30.27 in 6.2 mi NNW 3.5 mph - N/A   Mostly Cloudy
5:55 PM 42.8 °F 41.1 °F 41.0 °F 93% 30.27 in 6.2 mi Variable 3.5 mph - N/A   Mostly Cloudy
6:25 PM 42.8 °F 40.1 °F 41.0 °F 93% 30.27 in 6.2 mi NW 4.6 mph - N/A   Mostly Cloudy
6:55 PM 41.0 °F 38.0 °F 39.2 °F 93% 30.30 in 6.2 mi NNW 4.6 mph - N/A   Mostly Cloudy
7:00 PM 41 °F - 39 °F 92% 30.33 in 9 mi NNW 4.5 mph - -   Mostly Cloudy
7:25 PM 41.0 °F - 39.2 °F 93% 30.30 in 6.2 mi Variable 2.3 mph - N/A   Mostly Cloudy
7:55 PM 41.0 °F 39.0 °F 41.0 °F 100% 30.30 in 6.2 mi Variable 3.5 mph - N/A   Mostly Cloudy
8:25 PM 41.0 °F 38.0 °F 41.0 °F 100% 30.30 in 6.2 mi NW 4.6 mph - N/A   Mostly Cloudy
8:53 PM 41.0 °F 37.1 °F 41.0 °F 100% 30.33 in 4.3 mi NNW 5.8 mph - N/A   Mostly Cloudy
8:55 PM 41.0 °F 37.1 °F 41.0 °F 100% 30.33 in 3.7 mi NNW 5.8 mph - N/A   Mostly Cloudy
9:09 PM 41.0 °F 36.4 °F 41.0 °F 100% 30.33 in 3.1 mi NNW 6.9 mph - N/A   Mostly Cloudy
9:14 PM 41.0 °F 36.4 °F 41.0 °F 100% 30.33 in 2.8 mi NNW 6.9 mph - N/A   Mostly Cloudy
9:25 PM 41.0 °F 37.1 °F 41.0 °F 100% 30.33 in 2.8 mi NNW 5.8 mph - N/A   Mostly Cloudy
9:55 PM 41.0 °F 38.0 °F 41.0 °F 100% 30.33 in 2.8 mi NNW 4.6 mph - N/A   Mostly Cloudy
10:00 PM 42 °F - 41 °F 95% 30.38 in 3 mi NNW 4.5 mph - -   Mist
10:25 PM 41.0 °F 37.1 °F 41.0 °F 100% 30.36 in 2.8 mi NNW 5.8 mph - N/A   Mostly Cloudy
10:55 PM 41.0 °F 39.0 °F 41.0 °F 100% 30.36 in 2.8 mi NNW 3.5 mph - N/A   Mostly Cloudy
11:25 PM 39.2 °F 37.0 °F 39.2 °F 100% 30.36 in 1.2 mi NNW 3.5 mph - N/A   Mostly Cloudy
11:55 PM 39.2 °F 35.0 °F 39.2 °F 100% 30.36 in 1.6 mi North 5.8 mph - N/A   Mostly Cloudy